Location: Seale
(32.2974°N, 85.1688°W)
Time: 10:08:48
(UTC+00:00)

Hubble Space Telescope - Pass Details

Date: 23 January 2021
Orbit: 535 x 539 km, 28.5° (Epoch: 08 March)

Event Time Altitude Azimuth Distance (km) Brightness Sun altitude
Rises 01:41:36 0° 268° (W) 2,676 5.4 -32.9°
Reaches altitude 10° 01:44:01 10° 258° (WSW) 1,785 4.2 -33.4°
Enters shadow 01:45:05 16° 250° (WSW) 1,424 3.6 -33.6°
